Time,TemperatureF,DewpointF,PressureIn,WindDirection,WindDirectionDegrees,WindSpeedMPH,WindSpeedGustMPH,Humidity,HourlyPrecipIn,Conditions,Clouds,dailyrainin,SoftwareType,DateUTC
2013-05-13 00:04:00,24.2,19.5,28.03,North,5,0.0,0.0,82,0.00,,---,0.00,VWS V14.01,2013-05-13 05:04:00,
2013-05-13 00:10:00,24.2,19.2,28.03,North,5,0.0,0.0,81,0.00,,---,0.00,VWS V14.01,2013-05-13 05:10:00,
2013-05-13 00:15:00,24.2,19.2,28.03,North,5,0.0,0.0,81,0.00,,---,0.00,VWS V14.01,2013-05-13 05:15:00,
2013-05-13 00:20:00,24.4,19.4,28.03,North,5,0.0,0.0,81,0.00,,---,0.00,VWS V14.01,2013-05-13 05:20:00,
2013-05-13 00:25:00,24.5,19.2,28.03,North,5,0.0,0.0,80,0.00,,---,0.00,VWS V14.01,2013-05-13 05:25:00,
2013-05-13 00:30:00,24.7,19.1,28.03,North,5,0.0,0.0,79,0.00,,---,0.00,VWS V14.01,2013-05-13 05:30:00,
2013-05-13 00:35:00,24.7,19.1,28.03,North,5,0.0,0.0,79,0.00,,---,0.00,VWS V14.01,2013-05-13 05:35:00,
2013-05-13 00:41:00,24.8,19.2,28.03,North,5,0.0,0.0,79,0.00,,---,0.00,VWS V14.01,2013-05-13 05:41:00,
2013-05-13 00:46:00,25.0,19.4,28.02,North,5,0.0,0.0,79,0.00,,---,0.00,VWS V14.01,2013-05-13 05:46:00,
2013-05-13 00:51:00,24.9,19.0,28.02,North,5,0.0,0.0,78,0.00,,---,0.00,VWS V14.01,2013-05-13 05:51:00,
2013-05-13 00:56:00,25.0,19.1,28.02,North,5,0.0,0.0,78,0.00,,---,0.00,VWS V14.01,2013-05-13 05:56:00,
2013-05-13 01:02:00,25.3,19.4,28.02,North,5,0.0,0.0,78,0.00,,---,0.00,VWS V14.01,2013-05-13 06:02:00,
2013-05-13 01:07:00,25.3,20.0,28.02,North,5,0.0,0.0,80,0.00,,---,0.00,VWS V14.01,2013-05-13 06:07:00,
2013-05-13 01:12:00,25.1,19.8,28.02,North,5,0.0,0.0,80,0.00,,---,0.00,VWS V14.01,2013-05-13 06:12:00,
2013-05-13 01:17:00,24.8,19.5,28.02,North,5,0.0,0.0,80,0.00,,---,0.00,VWS V14.01,2013-05-13 06:17:00,
2013-05-13 01:22:00,24.5,19.2,28.02,North,5,0.0,0.0,80,0.00,,---,0.00,VWS V14.01,2013-05-13 06:22:00,
2013-05-13 01:27:00,24.0,18.7,28.02,North,5,0.0,0.0,80,0.00,,---,0.00,VWS V14.01,2013-05-13 06:27:00,
2013-05-13 01:32:00,23.7,18.5,28.01,North,5,0.0,0.0,80,0.00,,---,0.00,VWS V14.01,2013-05-13 06:32:00,
2013-05-13 01:37:00,23.7,18.7,28.01,North,5,0.0,0.0,81,0.00,,---,0.00,VWS V14.01,2013-05-13 06:37:00,
2013-05-13 01:42:00,23.9,18.9,28.01,North,5,0.0,0.0,81,0.00,,---,0.00,VWS V14.01,2013-05-13 06:42:00,
2013-05-13 01:47:00,24.0,18.7,28.01,North,5,0.0,0.0,80,0.00,,---,0.00,VWS V14.01,2013-05-13 06:47:00,
2013-05-13 01:52:00,24.0,18.5,28.01,North,5,0.0,0.0,79,0.00,,---,0.00,VWS V14.01,2013-05-13 06:52:00,
2013-05-13 01:58:00,23.9,18.6,28.01,North,5,0.0,0.0,80,0.00,,---,0.00,VWS V14.01,2013-05-13 06:58:00,
2013-05-13 02:03:00,23.7,18.5,28.01,North,5,0.0,0.0,80,0.00,,---,0.00,VWS V14.01,2013-05-13 07:03:00,
2013-05-13 02:08:00,23.6,18.4,28.01,North,5,0.0,0.0,80,0.00,,---,0.00,VWS V14.01,2013-05-13 07:08:00,
2013-05-13 02:13:00,23.5,18.2,28.01,North,5,0.0,0.0,80,0.00,,---,0.00,VWS V14.01,2013-05-13 07:13:00,
2013-05-13 02:18:00,23.3,18.1,28.01,North,5,0.0,0.0,80,0.00,,---,0.00,VWS V14.01,2013-05-13 07:18:00,
2013-05-13 02:24:00,23.0,18.0,28.01,North,5,0.0,0.0,81,0.00,,---,0.00,VWS V14.01,2013-05-13 07:24:00,
2013-05-13 02:29:00,22.9,18.2,28.01,North,5,0.0,0.0,82,0.00,,---,0.00,VWS V14.01,2013-05-13 07:29:00,
2013-05-13 02:34:00,22.7,18.3,28.01,North,5,0.0,0.0,83,0.00,,---,0.00,VWS V14.01,2013-05-13 07:34:00,
2013-05-13 02:39:00,22.7,18.6,28.01,North,5,0.0,0.0,84,0.00,,---,0.00,VWS V14.01,2013-05-13 07:39:00,
2013-05-13 02:44:00,22.6,18.8,28.01,North,5,0.0,0.0,85,0.00,,---,0.00,VWS V14.01,2013-05-13 07:44:00,
2013-05-13 02:49:00,22.7,19.1,28.01,North,5,0.0,0.0,86,0.00,,---,0.00,VWS V14.01,2013-05-13 07:49:00,
2013-05-13 02:55:00,22.7,19.7,28.01,North,5,0.0,0.0,88,0.00,,---,0.00,VWS V14.01,2013-05-13 07:55:00,
2013-05-13 03:00:00,22.7,20.0,28.01,North,5,0.0,0.0,89,0.00,,---,0.00,VWS V14.01,2013-05-13 08:00:00,
2013-05-13 03:05:00,22.6,19.9,28.00,North,5,0.0,0.0,89,0.00,,---,0.00,VWS V14.01,2013-05-13 08:05:00,
2013-05-13 03:10:00,22.6,20.1,28.00,North,5,0.0,0.0,90,0.00,,---,0.00,VWS V14.01,2013-05-13 08:10:00,
2013-05-13 03:15:00,22.5,20.0,28.01,North,5,0.0,0.0,90,0.00,,---,0.00,VWS V14.01,2013-05-13 08:15:00,
2013-05-13 03:21:00,22.2,19.7,28.01,North,5,0.0,0.0,90,0.00,,---,0.00,VWS V14.01,2013-05-13 08:21:00,
2013-05-13 03:26:00,22.1,19.4,28.01,North,5,0.0,0.0,89,0.00,,---,0.00,VWS V14.01,2013-05-13 08:26:00,
2013-05-13 03:31:00,22.1,19.4,28.01,North,5,0.0,0.0,89,0.00,,---,0.00,VWS V14.01,2013-05-13 08:31:00,
2013-05-13 03:36:00,22.0,19.5,28.01,North,5,0.0,0.0,90,0.00,,---,0.00,VWS V14.01,2013-05-13 08:36:00,
2013-05-13 03:42:00,21.9,19.4,28.01,North,5,0.0,0.0,90,0.00,,---,0.00,VWS V14.01,2013-05-13 08:42:00,
2013-05-13 03:47:00,21.7,19.2,28.01,North,5,0.0,0.0,90,0.00,,---,0.00,VWS V14.01,2013-05-13 08:47:00,
2013-05-13 03:52:00,21.7,19.5,28.01,North,5,0.0,0.0,91,0.00,,---,0.00,VWS V14.01,2013-05-13 08:52:00,
2013-05-13 03:57:00,21.6,19.4,28.01,North,5,0.0,0.0,91,0.00,,---,0.00,VWS V14.01,2013-05-13 08:57:00,
2013-05-13 04:02:00,21.7,19.5,28.01,North,5,0.0,0.0,91,0.00,,---,0.00,VWS V14.01,2013-05-13 09:02:00,
2013-05-13 04:07:00,21.5,19.3,28.01,North,5,0.0,0.0,91,0.00,,---,0.00,VWS V14.01,2013-05-13 09:07:00,
2013-05-13 04:13:00,21.5,19.3,28.01,North,5,0.0,0.0,91,0.00,,---,0.00,VWS V14.01,2013-05-13 09:13:00,
2013-05-13 04:18:00,21.5,19.5,28.01,North,5,0.0,0.0,92,0.00,,---,0.00,VWS V14.01,2013-05-13 09:18:00,
2013-05-13 04:23:00,21.4,19.4,28.01,North,5,0.0,0.0,92,0.00,,---,0.00,VWS V14.01,2013-05-13 09:23:00,
2013-05-13 04:28:00,21.2,19.2,28.01,North,5,0.0,0.0,92,0.00,,---,0.00,VWS V14.01,2013-05-13 09:28:00,
2013-05-13 04:34:00,21.3,19.3,28.01,North,5,0.0,0.0,92,0.00,,---,0.00,VWS V14.01,2013-05-13 09:34:00,
2013-05-13 04:39:00,21.1,19.1,28.01,North,5,0.0,0.0,92,0.00,,---,0.00,VWS V14.01,2013-05-13 09:39:00,
2013-05-13 04:44:00,20.9,19.0,28.01,North,5,0.0,0.0,92,0.00,,---,0.00,VWS V14.01,2013-05-13 09:44:00,
2013-05-13 04:49:00,20.9,19.0,28.01,North,5,0.0,0.0,92,0.00,,---,0.00,VWS V14.01,2013-05-13 09:49:00,
2013-05-13 04:54:00,20.8,18.9,28.01,North,5,0.0,0.0,92,0.00,,---,0.00,VWS V14.01,2013-05-13 09:54:00,
2013-05-13 05:00:00,20.8,18.9,28.01,North,5,0.0,0.0,92,0.00,,---,0.00,VWS V14.01,2013-05-13 10:00:00,
2013-05-13 05:05:00,20.7,18.8,28.01,North,5,0.0,0.0,92,0.00,,---,0.00,VWS V14.01,2013-05-13 10:05:00,
2013-05-13 05:10:00,20.7,18.8,28.01,North,5,0.0,0.0,92,0.00,,---,0.00,VWS V14.01,2013-05-13 10:10:00,
2013-05-13 05:15:00,20.5,18.5,28.01,North,5,0.0,0.0,92,0.00,,---,0.00,VWS V14.01,2013-05-13 10:15:00,
2013-05-13 05:20:00,20.4,18.5,28.01,North,5,0.0,0.0,92,0.00,,---,0.00,VWS V14.01,2013-05-13 10:20:00,
2013-05-13 05:25:00,20.3,18.4,28.01,North,5,0.0,0.0,92,0.00,,---,0.00,VWS V14.01,2013-05-13 10:25:00,
2013-05-13 05:30:00,20.1,18.1,28.01,North,5,0.0,0.0,92,0.00,,---,0.00,VWS V14.01,2013-05-13 10:30:00,
2013-05-13 05:35:00,20.0,18.0,28.01,North,5,0.0,0.0,92,0.00,,---,0.00,VWS V14.01,2013-05-13 10:35:00,
2013-05-13 05:40:00,20.0,18.3,28.01,North,5,0.0,0.0,93,0.00,,---,0.00,VWS V14.01,2013-05-13 10:40:00,
2013-05-13 05:45:00,20.0,18.0,28.01,North,5,0.0,0.0,92,0.00,,---,0.00,VWS V14.01,2013-05-13 10:45:00,
2013-05-13 05:51:00,19.8,17.9,28.01,North,5,0.0,0.0,92,0.00,,---,0.00,VWS V14.01,2013-05-13 10:51:00,
2013-05-13 05:56:00,19.8,17.9,28.01,North,5,0.0,0.0,92,0.00,,---,0.00,VWS V14.01,2013-05-13 10:56:00,
2013-05-13 06:01:00,20.4,18.7,28.01,North,5,0.0,0.0,93,0.00,,---,0.00,VWS V14.01,2013-05-13 11:01:00,
2013-05-13 06:06:00,20.8,19.1,28.01,North,5,0.0,0.0,93,0.00,,---,0.00,VWS V14.01,2013-05-13 11:06:00,
2013-05-13 06:11:00,21.2,19.5,28.01,North,5,0.0,0.0,93,0.00,,---,0.00,VWS V14.01,2013-05-13 11:11:00,
2013-05-13 06:16:00,21.7,20.0,28.01,North,5,0.0,0.0,93,0.00,,---,0.00,VWS V14.01,2013-05-13 11:16:00,
2013-05-13 06:21:00,22.1,20.4,28.01,North,5,0.0,0.0,93,0.00,,---,0.00,VWS V14.01,2013-05-13 11:21:00,
2013-05-13 06:27:00,22.6,20.9,28.01,North,5,0.0,0.0,93,0.00,,---,0.00,VWS V14.01,2013-05-13 11:27:00,
2013-05-13 06:32:00,23.3,21.6,28.01,North,5,0.0,0.0,93,0.00,,---,0.00,VWS V14.01,2013-05-13 11:32:00,
2013-05-13 06:37:00,24.3,22.6,28.01,North,5,0.0,0.0,93,0.00,,---,0.00,VWS V14.01,2013-05-13 11:37:00,
2013-05-13 06:42:00,25.2,23.7,28.01,North,5,0.0,0.0,94,0.00,,---,0.00,VWS V14.01,2013-05-13 11:42:00,
2013-05-13 06:48:00,25.8,24.1,28.01,North,5,0.0,0.0,93,0.00,,---,0.00,VWS V14.01,2013-05-13 11:48:00,
2013-05-13 06:53:00,26.7,25.0,28.01,North,5,0.0,0.0,93,0.00,,---,0.00,VWS V14.01,2013-05-13 11:53:00,
2013-05-13 06:58:00,27.5,25.5,28.01,North,5,0.0,0.0,92,0.00,,---,0.00,VWS V14.01,2013-05-13 11:58:00,
2013-05-13 07:03:00,28.3,25.8,28.01,North,5,0.0,0.0,90,0.00,,---,0.00,VWS V14.01,2013-05-13 12:03:00,
2013-05-13 07:08:00,29.5,26.1,28.01,North,5,0.0,0.0,87,0.00,,---,0.00,VWS V14.01,2013-05-13 12:08:00,
2013-05-13 07:13:00,30.4,26.1,28.01,North,5,0.0,0.0,84,0.00,,---,0.00,VWS V14.01,2013-05-13 12:13:00,
2013-05-13 07:18:00,31.3,26.5,28.02,North,5,0.0,0.0,82,0.00,,---,0.00,VWS V14.01,2013-05-13 12:18:00,
2013-05-13 07:24:00,32.3,26.5,28.02,North,5,0.0,0.0,79,0.00,,---,0.00,VWS V14.01,2013-05-13 12:24:00,
2013-05-13 07:29:00,33.4,26.7,28.02,North,5,0.0,0.0,76,0.00,,---,0.00,VWS V14.01,2013-05-13 12:29:00,
2013-05-13 07:34:00,34.4,26.3,28.03,North,5,0.0,0.0,72,0.00,,---,0.00,VWS V14.01,2013-05-13 12:34:00,
2013-05-13 07:39:00,35.2,25.0,28.03,North,355,0.0,1.0,66,0.00,,---,0.00,VWS V14.01,2013-05-13 12:39:00,
2013-05-13 07:44:00,36.1,24.7,28.03,North,355,0.0,3.0,63,0.00,,---,0.00,VWS V14.01,2013-05-13 12:44:00,
2013-05-13 07:50:00,36.8,24.6,28.02,NNW,335,0.0,2.0,61,0.00,,---,0.00,VWS V14.01,2013-05-13 12:50:00,
2013-05-13 07:55:00,37.5,23.2,28.02,West,272,1.0,2.0,56,0.00,,---,0.00,VWS V14.01,2013-05-13 12:55:00,
2013-05-13 08:00:00,38.0,24.1,28.02,West,272,0.0,0.0,57,0.00,,---,0.00,VWS V14.01,2013-05-13 13:00:00,
2013-05-13 08:05:00,38.3,22.7,28.02,West,271,2.0,3.0,53,0.00,,---,0.00,VWS V14.01,2013-05-13 13:05:00,
2013-05-13 08:10:00,38.7,23.1,28.02,West,271,0.0,2.0,53,0.00,,---,0.00,VWS V14.01,2013-05-13 13:10:00,
2013-05-13 08:15:00,39.2,22.1,28.02,WSW,250,1.0,5.0,50,0.00,,---,0.00,VWS V14.01,2013-05-13 13:15:00,
2013-05-13 08:21:00,39.6,22.5,28.02,WNW,285,0.0,5.0,50,0.00,,---,0.00,VWS V14.01,2013-05-13 13:21:00,
2013-05-13 08:26:00,40.3,23.1,28.02,WSW,255,4.0,4.0,50,0.00,,---,0.00,VWS V14.01,2013-05-13 13:26:00,
2013-05-13 08:31:00,40.4,22.8,28.02,West,261,2.0,2.0,49,0.00,,---,0.00,VWS V14.01,2013-05-13 13:31:00,
2013-05-13 08:36:00,40.8,22.6,28.02,SW,223,5.0,6.0,48,0.00,,---,0.00,VWS V14.01,2013-05-13 13:36:00,
2013-05-13 08:41:00,40.8,22.1,28.02,WSW,252,2.0,2.0,47,0.00,,---,0.00,VWS V14.01,2013-05-13 13:41:00,
2013-05-13 08:47:00,41.1,23.4,28.02,WSW,246,0.0,2.0,49,0.00,,---,0.00,VWS V14.01,2013-05-13 13:47:00,
2013-05-13 08:52:00,41.1,21.4,28.02,SW,231,2.0,4.0,45,0.00,,---,0.00,VWS V14.01,2013-05-13 13:52:00,
2013-05-13 08:57:00,41.1,21.4,28.02,WSW,257,5.0,5.0,45,0.00,,---,0.00,VWS V14.01,2013-05-13 13:57:00,
2013-05-13 09:02:00,41.4,21.7,28.01,WSW,252,2.0,4.0,45,0.00,,---,0.00,VWS V14.01,2013-05-13 14:02:00,
2013-05-13 09:07:00,41.9,22.1,28.01,WSW,245,4.0,4.0,45,0.00,,---,0.00,VWS V14.01,2013-05-13 14:07:00,
2013-05-13 09:12:00,42.7,22.3,28.01,West,279,0.0,6.0,44,0.00,,---,0.00,VWS V14.01,2013-05-13 14:12:00,
2013-05-13 09:18:00,42.8,22.4,28.01,SSW,203,6.0,8.0,44,0.00,,---,0.00,VWS V14.01,2013-05-13 14:18:00,
2013-05-13 09:23:00,42.7,22.3,28.01,WSW,244,0.0,5.0,44,0.00,,---,0.00,VWS V14.01,2013-05-13 14:23:00,
2013-05-13 09:28:00,42.9,22.0,28.01,SSW,202,0.0,0.0,43,0.00,,---,0.00,VWS V14.01,2013-05-13 14:28:00,
2013-05-13 09:33:00,43.2,22.2,28.00,WSW,246,4.0,6.0,43,0.00,,---,0.00,VWS V14.01,2013-05-13 14:33:00,
2013-05-13 09:38:00,43.5,22.5,28.00,South,191,3.0,3.0,43,0.00,,---,0.00,VWS V14.01,2013-05-13 14:38:00,
2013-05-13 09:44:00,43.8,22.2,28.00,WSW,246,5.0,9.0,42,0.00,,---,0.00,VWS V14.01,2013-05-13 14:44:00,
2013-05-13 09:49:00,43.6,22.6,28.00,SW,217,1.0,3.0,43,0.00,,---,0.00,VWS V14.01,2013-05-13 14:49:00,
2013-05-13 09:54:00,43.8,21.6,28.00,SW,219,3.0,8.0,41,0.00,,---,0.00,VWS V14.01,2013-05-13 14:54:00,
2013-05-13 09:59:00,43.7,22.1,28.00,WNW,290,2.0,8.0,42,0.00,,---,0.00,VWS V14.01,2013-05-13 14:59:00,
2013-05-13 10:04:00,44.5,22.3,27.99,SSW,210,0.0,2.0,41,0.00,,---,0.00,VWS V14.01,2013-05-13 15:04:00,
2013-05-13 10:09:00,44.8,22.0,27.99,WNW,300,2.0,7.0,40,0.00,,---,0.00,VWS V14.01,2013-05-13 15:09:00,
2013-05-13 10:14:00,44.8,22.0,27.99,WSW,248,4.0,7.0,40,0.00,,---,0.00,VWS V14.01,2013-05-13 15:14:00,
2013-05-13 10:19:00,45.4,23.1,27.98,WSW,246,3.0,4.0,41,0.00,,---,0.00,VWS V14.01,2013-05-13 15:19:00,
2013-05-13 10:25:00,46.0,23.6,27.98,South,173,4.0,5.0,41,0.00,,---,0.00,VWS V14.01,2013-05-13 15:25:00,
2013-05-13 10:30:00,46.5,22.9,27.98,SSE,150,2.0,3.0,39,0.00,,---,0.00,VWS V14.01,2013-05-13 15:30:00,
2013-05-13 10:35:00,46.4,22.2,27.98,SE,143,3.0,5.0,38,0.00,,---,0.00,VWS V14.01,2013-05-13 15:35:00,
2013-05-13 10:40:00,45.9,22.4,27.98,SSE,162,1.0,2.0,39,0.00,,---,0.00,VWS V14.01,2013-05-13 15:40:00,
2013-05-13 10:46:00,46.0,23.0,27.97,SSE,153,7.0,7.0,40,0.00,,---,0.00,VWS V14.01,2013-05-13 15:46:00,
2013-05-13 10:51:00,46.5,22.3,27.97,SSE,156,4.0,6.0,38,0.00,,---,0.00,VWS V14.01,2013-05-13 15:51:00,
2013-05-13 10:57:00,46.3,21.5,27.97,South,177,3.0,7.0,37,0.00,,---,0.00,VWS V14.01,2013-05-13 15:57:00,
2013-05-13 11:02:00,46.4,21.6,27.97,SSW,194,2.0,4.0,37,0.00,,---,0.00,VWS V14.01,2013-05-13 16:02:00,
2013-05-13 11:07:00,46.9,21.4,27.97,SW,234,6.0,6.0,36,0.00,,---,0.00,VWS V14.01,2013-05-13 16:07:00,
2013-05-13 11:12:00,48.0,24.2,27.97,SE,141,2.0,2.0,39,0.00,,---,0.00,VWS V14.01,2013-05-13 16:12:00,
2013-05-13 11:17:00,48.2,21.9,27.96,SSW,206,4.0,4.0,35,0.00,,---,0.00,VWS V14.01,2013-05-13 16:17:00,
2013-05-13 11:22:00,48.1,22.4,27.96,SSE,151,5.0,5.0,36,0.00,,---,0.00,VWS V14.01,2013-05-13 16:22:00,
2013-05-13 11:27:00,48.4,23.3,27.96,South,186,7.0,11.0,37,0.00,,---,0.00,VWS V14.01,2013-05-13 16:27:00,
2013-05-13 11:32:00,47.9,20.9,27.95,SSE,158,6.0,10.0,34,0.00,,---,0.00,VWS V14.01,2013-05-13 16:32:00,
2013-05-13 11:38:00,47.8,20.8,27.95,South,190,4.0,7.0,34,0.00,,---,0.00,VWS V14.01,2013-05-13 16:38:00,
2013-05-13 11:43:00,48.3,21.2,27.95,South,188,5.0,8.0,34,0.00,,---,0.00,VWS V14.01,2013-05-13 16:43:00,
2013-05-13 11:48:00,48.2,21.9,27.95,SSE,165,4.0,6.0,35,0.00,,---,0.00,VWS V14.01,2013-05-13 16:48:00,
2013-05-13 11:54:00,48.6,21.5,27.95,SW,219,3.0,7.0,34,0.00,,---,0.00,VWS V14.01,2013-05-13 16:54:00,
2013-05-13 11:59:00,49.1,22.6,27.95,SSE,153,1.0,6.0,35,0.00,,---,0.00,VWS V14.01,2013-05-13 16:59:00,
2013-05-13 12:04:00,49.3,21.4,27.94,SW,221,3.0,9.0,33,0.00,,---,0.00,VWS V14.01,2013-05-13 17:04:00,
2013-05-13 12:09:00,49.1,22.0,27.94,South,174,2.0,4.0,34,0.00,,---,0.00,VWS V14.01,2013-05-13 17:09:00,
2013-05-13 12:14:00,49.5,23.7,27.94,South,180,5.0,8.0,36,0.00,,---,0.00,VWS V14.01,2013-05-13 17:14:00,
2013-05-13 12:19:00,49.6,23.1,27.93,South,181,1.0,1.0,35,0.00,,---,0.00,VWS V14.01,2013-05-13 17:19:00,
2013-05-13 12:24:00,50.5,24.6,27.93,SW,230,1.0,6.0,36,0.00,,---,0.00,VWS V14.01,2013-05-13 17:24:00,
2013-05-13 12:30:00,50.1,22.8,27.93,SSW,200,3.0,8.0,34,0.00,,---,0.00,VWS V14.01,2013-05-13 17:30:00,
2013-05-13 12:35:00,49.3,22.8,27.92,SE,138,4.0,4.0,35,0.00,,---,0.00,VWS V14.01,2013-05-13 17:35:00,
2013-05-13 12:40:00,49.5,23.7,27.92,SW,223,4.0,4.0,36,0.00,,---,0.00,VWS V14.01,2013-05-13 17:40:00,
2013-05-13 12:45:00,49.0,23.2,27.92,SSW,193,4.0,6.0,36,0.00,,---,0.00,VWS V14.01,2013-05-13 17:45:00,
2013-05-13 12:50:00,48.7,22.3,27.92,SW,215,7.0,11.0,35,0.00,,---,0.00,VWS V14.01,2013-05-13 17:50:00,
2013-05-13 12:55:00,48.2,23.8,27.92,SSW,202,2.0,3.0,38,0.00,,---,0.00,VWS V14.01,2013-05-13 17:55:00,
2013-05-13 13:01:00,48.4,22.0,27.92,SSW,204,5.0,6.0,35,0.00,,---,0.00,VWS V14.01,2013-05-13 18:01:00,
2013-05-13 13:06:00,47.7,22.7,27.92,SSW,200,1.0,3.0,37,0.00,,---,0.00,VWS V14.01,2013-05-13 18:06:00,
2013-05-13 13:11:00,47.6,22.0,27.92,South,171,2.0,2.0,36,0.00,,---,0.00,VWS V14.01,2013-05-13 18:11:00,
2013-05-13 13:16:00,47.0,22.1,27.91,South,182,0.0,4.0,37,0.00,,---,0.00,VWS V14.01,2013-05-13 18:16:00,
2013-05-13 13:21:00,47.3,23.6,27.91,South,187,5.0,7.0,39,0.00,,---,0.00,VWS V14.01,2013-05-13 18:21:00,
2013-05-13 13:27:00,47.0,22.7,27.91,SSW,192,4.0,5.0,38,0.00,,---,0.00,VWS V14.01,2013-05-13 18:27:00,
2013-05-13 13:32:00,46.5,22.3,27.91,South,180,4.0,8.0,38,0.00,,---,0.00,VWS V14.01,2013-05-13 18:32:00,
2013-05-13 13:37:00,46.2,22.6,27.91,South,186,9.0,9.0,39,0.00,,---,0.00,VWS V14.01,2013-05-13 18:37:00,
2013-05-13 13:42:00,45.9,21.7,27.91,SSW,193,9.0,9.0,38,0.00,,---,0.00,VWS V14.01,2013-05-13 18:42:00,
2013-05-13 13:48:00,45.2,21.1,27.91,South,180,6.0,8.0,38,0.00,,---,0.00,VWS V14.01,2013-05-13 18:48:00,
2013-05-13 13:53:00,45.0,21.5,27.91,SSW,193,8.0,8.0,39,0.00,,---,0.00,VWS V14.01,2013-05-13 18:53:00,
2013-05-13 13:58:00,44.8,21.4,27.91,SE,144,6.0,8.0,39,0.00,,---,0.00,VWS V14.01,2013-05-13 18:58:00,
2013-05-13 14:03:00,44.7,22.5,27.91,South,186,2.0,2.0,41,0.00,,---,0.00,VWS V14.01,2013-05-13 19:03:00,
2013-05-13 14:08:00,45.0,22.1,27.91,SSE,155,3.0,9.0,40,0.00,,---,0.00,VWS V14.01,2013-05-13 19:08:00,
2013-05-13 14:13:00,45.1,22.2,27.91,South,190,1.0,5.0,40,0.00,,---,0.00,VWS V14.01,2013-05-13 19:13:00,
2013-05-13 14:19:00,45.0,22.1,27.91,SSE,161,1.0,6.0,40,0.00,,---,0.00,VWS V14.01,2013-05-13 19:19:00,
2013-05-13 14:24:00,44.9,21.5,27.91,South,175,3.0,5.0,39,0.00,,---,0.00,VWS V14.01,2013-05-13 19:24:00,
2013-05-13 14:29:00,44.6,21.2,27.91,SW,231,4.0,13.0,39,0.00,,---,0.00,VWS V14.01,2013-05-13 19:29:00,
2013-05-13 14:34:00,44.4,21.0,27.90,SSW,212,5.0,10.0,39,0.00,,---,0.00,VWS V14.01,2013-05-13 19:34:00,
2013-05-13 14:39:00,44.5,21.7,27.90,WSW,241,13.0,13.0,40,0.00,,---,0.00,VWS V14.01,2013-05-13 19:39:00,
2013-05-13 14:45:00,44.9,21.5,27.90,South,188,7.0,9.0,39,0.00,,---,0.00,VWS V14.01,2013-05-13 19:45:00,
2013-05-13 14:50:00,44.8,21.4,27.89,South,170,0.0,4.0,39,0.00,,---,0.00,VWS V14.01,2013-05-13 19:50:00,
2013-05-13 14:55:00,44.8,22.0,27.89,South,176,1.0,2.0,40,0.00,,---,0.00,VWS V14.01,2013-05-13 19:55:00,
2013-05-13 15:00:00,44.7,22.5,27.89,SSE,157,4.0,10.0,41,0.00,,---,0.00,VWS V14.01,2013-05-13 20:00:00,
2013-05-13 15:05:00,44.4,21.6,27.89,SSW,192,2.0,8.0,40,0.00,,---,0.00,VWS V14.01,2013-05-13 20:05:00,
2013-05-13 15:11:00,44.2,21.4,27.89,SSE,167,5.0,5.0,40,0.00,,---,0.00,VWS V14.01,2013-05-13 20:11:00,
2013-05-13 15:16:00,44.2,23.1,27.87,SSE,154,2.0,2.0,43,0.00,,---,0.00,VWS V14.01,2013-05-13 20:16:00,
2013-05-13 15:21:00,44.4,22.8,27.87,SSE,166,4.0,6.0,42,0.00,,---,0.00,VWS V14.01,2013-05-13 20:21:00,
2013-05-13 15:26:00,44.2,22.0,27.87,South,191,6.0,9.0,41,0.00,,---,0.00,VWS V14.01,2013-05-13 20:26:00,
2013-05-13 15:31:00,44.0,21.8,27.86,SSW,213,2.0,7.0,41,0.00,,---,0.00,VWS V14.01,2013-05-13 20:31:00,
2013-05-13 15:37:00,44.0,21.8,27.86,South,172,3.0,5.0,41,0.00,,---,0.00,VWS V14.01,2013-05-13 20:37:00,
2013-05-13 15:42:00,44.1,22.5,27.86,South,176,4.0,6.0,42,0.00,,---,0.00,VWS V14.01,2013-05-13 20:42:00,
2013-05-13 15:47:00,43.8,21.6,27.85,SSW,211,0.0,4.0,41,0.00,,---,0.00,VWS V14.01,2013-05-13 20:47:00,
2013-05-13 15:52:00,43.6,22.6,27.85,South,189,2.0,7.0,43,0.00,,---,0.00,VWS V14.01,2013-05-13 20:52:00,
2013-05-13 15:57:00,43.5,23.6,27.85,SW,221,2.0,2.0,45,0.00,,---,0.00,VWS V14.01,2013-05-13 20:57:00,
2013-05-13 16:02:00,43.4,23.0,27.84,South,177,3.0,5.0,44,0.00,,---,0.00,VWS V14.01,2013-05-13 21:02:00,
2013-05-13 16:07:00,43.4,23.0,27.84,SSW,205,5.0,8.0,44,0.00,,---,0.00,VWS V14.01,2013-05-13 21:07:00,
2013-05-13 16:12:00,43.1,23.2,27.84,SSE,163,10.0,10.0,45,0.00,,---,0.00,VWS V14.01,2013-05-13 21:12:00,
2013-05-13 16:17:00,42.6,22.8,27.84,SSW,206,4.0,12.0,45,0.00,,---,0.00,VWS V14.01,2013-05-13 21:17:00,
2013-05-13 16:22:00,42.6,22.8,27.84,South,178,4.0,7.0,45,0.00,,---,0.00,VWS V14.01,2013-05-13 21:22:00,
2013-05-13 16:27:00,42.6,22.8,27.84,SSE,155,3.0,9.0,45,0.00,,---,0.00,VWS V14.01,2013-05-13 21:27:00,
2013-05-13 16:33:00,42.9,23.6,27.82,South,184,0.0,3.0,46,0.00,,---,0.00,VWS V14.01,2013-05-13 21:33:00,
2013-05-13 16:38:00,43.4,23.5,27.82,South,186,3.0,4.0,45,0.00,,---,0.00,VWS V14.01,2013-05-13 21:38:00,
2013-05-13 16:43:00,43.4,24.0,27.82,SE,142,3.0,6.0,46,0.00,,---,0.00,VWS V14.01,2013-05-13 21:43:00,
2013-05-13 16:48:00,43.2,22.8,27.81,SSE,168,6.0,12.0,44,0.00,,---,0.00,VWS V14.01,2013-05-13 21:48:00,
2013-05-13 16:53:00,43.1,23.2,27.81,SSE,161,3.0,9.0,45,0.00,,---,0.00,VWS V14.01,2013-05-13 21:53:00,
2013-05-13 16:59:00,42.9,23.0,27.81,SSE,153,7.0,7.0,45,0.00,,---,0.00,VWS V14.01,2013-05-13 21:59:00,
2013-05-13 17:04:00,42.9,23.6,27.80,South,173,6.0,9.0,46,0.00,,---,0.00,VWS V14.01,2013-05-13 22:04:00,
2013-05-13 17:09:00,42.6,26.7,27.80,South,177,0.0,1.0,53,0.00,,---,0.00,VWS V14.01,2013-05-13 22:09:00,
2013-05-13 17:14:00,42.2,26.3,27.80,SSE,149,2.0,3.0,53,0.00,,---,0.00,VWS V14.01,2013-05-13 22:14:00,
2013-05-13 17:19:00,42.1,24.8,27.81,SSE,155,2.0,4.0,50,0.00,,---,0.00,VWS V14.01,2013-05-13 22:19:00,
2013-05-13 17:25:00,42.3,25.0,27.81,South,170,4.0,6.0,50,0.00,,---,0.00,VWS V14.01,2013-05-13 22:25:00,
2013-05-13 17:30:00,42.6,24.8,27.81,South,180,1.0,8.0,49,0.00,,---,0.00,VWS V14.01,2013-05-13 22:30:00,
2013-05-13 17:35:00,43.1,25.3,27.80,SSE,165,5.0,6.0,49,0.00,,---,0.00,VWS V14.01,2013-05-13 22:35:00,
2013-05-13 17:40:00,43.5,25.1,27.80,SSE,157,3.0,5.0,48,0.00,,---,0.00,VWS V14.01,2013-05-13 22:40:00,
2013-05-13 17:45:00,44.2,24.2,27.80,SSE,149,3.0,9.0,45,0.00,,---,0.00,VWS V14.01,2013-05-13 22:45:00,
2013-05-13 17:50:00,45.2,25.1,27.80,SSE,162,5.0,11.0,45,0.00,,---,0.00,VWS V14.01,2013-05-13 22:50:00,
2013-05-13 17:56:00,45.9,24.7,27.80,SW,225,2.0,9.0,43,0.00,,---,0.00,VWS V14.01,2013-05-13 22:56:00,
2013-05-13 18:01:00,46.3,25.0,27.79,SSW,203,4.0,9.0,43,0.00,,---,0.00,VWS V14.01,2013-05-13 23:01:00,
2013-05-13 18:06:00,46.7,24.3,27.79,SSE,155,3.0,3.0,41,0.00,,---,0.00,VWS V14.01,2013-05-13 23:06:00,
2013-05-13 18:11:00,46.7,24.3,27.79,South,170,3.0,5.0,41,0.00,,---,0.00,VWS V14.01,2013-05-13 23:11:00,
2013-05-13 18:16:00,47.2,24.7,27.78,SSE,155,7.0,13.0,41,0.00,,---,0.00,VWS V14.01,2013-05-13 23:16:00,
2013-05-13 18:21:00,47.2,25.3,27.78,South,178,9.0,9.0,42,0.00,,---,0.00,VWS V14.01,2013-05-13 23:21:00,
2013-05-13 18:27:00,47.1,24.0,27.78,South,190,6.0,7.0,40,0.00,,---,0.00,VWS V14.01,2013-05-13 23:27:00,
2013-05-13 18:32:00,46.8,24.4,27.78,South,178,9.0,14.0,41,0.00,,---,0.00,VWS V14.01,2013-05-13 23:32:00,
2013-05-13 18:37:00,46.7,25.4,27.78,SSE,164,5.0,6.0,43,0.00,,---,0.00,VWS V14.01,2013-05-13 23:37:00,
2013-05-13 18:42:00,47.1,24.6,27.78,SSE,157,3.0,9.0,41,0.00,,---,0.00,VWS V14.01,2013-05-13 23:42:00,
2013-05-13 18:47:00,47.2,24.1,27.78,South,172,12.0,13.0,40,0.00,,---,0.00,VWS V14.01,2013-05-13 23:47:00,
2013-05-13 18:52:00,46.8,24.9,27.78,South,173,4.0,5.0,42,0.00,,---,0.00,VWS V14.01,2013-05-13 23:52:00,
2013-05-13 18:57:00,46.5,24.7,27.78,SE,146,2.0,15.0,42,0.00,,---,0.00,VWS V14.01,2013-05-13 23:57:00,
2013-05-13 19:02:00,46.2,25.0,27.77,SSE,167,2.0,4.0,43,0.00,,---,0.00,VWS V14.01,2013-05-14 00:02:00,
2013-05-13 19:07:00,45.9,24.7,27.77,South,170,2.0,4.0,43,0.00,,---,0.00,VWS V14.01,2013-05-14 00:07:00,
2013-05-13 19:12:00,45.6,23.9,27.77,SE,146,5.0,10.0,42,0.00,,---,0.00,VWS V14.01,2013-05-14 00:12:00,
2013-05-13 19:17:00,45.2,23.5,27.77,SSE,149,4.0,9.0,42,0.00,,---,0.00,VWS V14.01,2013-05-14 00:17:00,
2013-05-13 19:23:00,45.0,23.3,27.77,SSE,166,5.0,11.0,42,0.00,,---,0.00,VWS V14.01,2013-05-14 00:23:00,
2013-05-13 19:28:00,44.7,23.6,27.77,SSE,159,7.0,7.0,43,0.00,,---,0.00,VWS V14.01,2013-05-14 00:28:00,
2013-05-13 19:33:00,44.6,23.5,27.76,SSE,167,2.0,7.0,43,0.00,,---,0.00,VWS V14.01,2013-05-14 00:33:00,
2013-05-13 19:38:00,44.4,23.3,27.76,SSE,158,8.0,8.0,43,0.00,,---,0.00,VWS V14.01,2013-05-14 00:38:00,
2013-05-13 19:43:00,44.3,23.2,27.76,SW,233,10.0,10.0,43,0.00,,---,0.00,VWS V14.01,2013-05-14 00:43:00,
2013-05-13 19:48:00,44.0,22.4,27.75,SSE,164,6.0,9.0,42,0.00,,---,0.00,VWS V14.01,2013-05-14 00:48:00,
2013-05-13 19:53:00,43.6,22.6,27.75,SE,137,6.0,6.0,43,0.00,,---,0.00,VWS V14.01,2013-05-14 00:53:00,
2013-05-13 19:58:00,43.4,23.0,27.75,SSE,152,1.0,4.0,44,0.00,,---,0.00,VWS V14.01,2013-05-14 00:58:00,
2013-05-13 20:03:00,43.0,22.0,27.74,South,173,12.0,16.0,43,0.00,,---,0.00,VWS V14.01,2013-05-14 01:03:00,
2013-05-13 20:08:00,42.7,21.8,27.74,SSE,156,3.0,11.0,43,0.00,,---,0.00,VWS V14.01,2013-05-14 01:08:00,
2013-05-13 20:13:00,42.5,22.1,27.74,SSW,197,4.0,4.0,44,0.00,,---,0.00,VWS V14.01,2013-05-14 01:13:00,
2013-05-13 20:18:00,42.3,22.5,27.74,SE,134,3.0,5.0,45,0.00,,---,0.00,VWS V14.01,2013-05-14 01:18:00,
2013-05-13 20:23:00,42.1,22.8,27.74,SSE,149,4.0,8.0,46,0.00,,---,0.00,VWS V14.01,2013-05-14 01:23:00,
2013-05-13 20:29:00,41.9,22.1,27.74,South,180,5.0,9.0,45,0.00,,---,0.00,VWS V14.01,2013-05-14 01:29:00,
2013-05-13 20:34:00,41.9,22.6,27.74,SSE,168,4.0,6.0,46,0.00,,---,0.00,VWS V14.01,2013-05-14 01:34:00,
2013-05-13 20:39:00,41.9,22.6,27.74,SE,141,3.0,7.0,46,0.00,,---,0.00,VWS V14.01,2013-05-14 01:39:00,
2013-05-13 20:44:00,41.9,22.1,27.74,South,173,4.0,12.0,45,0.00,,---,0.00,VWS V14.01,2013-05-14 01:44:00,
2013-05-13 20:50:00,42.0,22.2,27.74,SSE,148,1.0,8.0,45,0.00,,---,0.00,VWS V14.01,2013-05-14 01:50:00,
2013-05-13 20:55:00,42.1,22.8,27.74,SSE,155,2.0,10.0,46,0.00,,---,0.00,VWS V14.01,2013-05-14 01:55:00,
2013-05-13 21:00:00,42.1,22.8,27.73,SE,144,1.0,1.0,46,0.00,,---,0.00,VWS V14.01,2013-05-14 02:00:00,
2013-05-13 21:05:00,42.1,22.8,27.73,SE,143,2.0,4.0,46,0.00,,---,0.00,VWS V14.01,2013-05-14 02:05:00,
2013-05-13 21:10:00,42.2,22.9,27.73,ESE,123,0.0,4.0,46,0.00,,---,0.00,VWS V14.01,2013-05-14 02:10:00,
2013-05-13 21:16:00,42.2,22.9,27.73,SE,134,10.0,10.0,46,0.00,,---,0.00,VWS V14.01,2013-05-14 02:16:00,
2013-05-13 21:21:00,42.4,23.6,27.73,SE,140,2.0,8.0,47,0.00,,---,0.00,VWS V14.01,2013-05-14 02:21:00,
2013-05-13 21:26:00,42.4,23.6,27.73,SSE,153,0.0,3.0,47,0.00,,---,0.00,VWS V14.01,2013-05-14 02:26:00,
2013-05-13 21:31:00,42.5,24.7,27.72,SSE,167,0.0,0.0,49,0.00,,---,0.00,VWS V14.01,2013-05-14 02:31:00,
2013-05-13 21:36:00,42.6,24.3,27.72,South,172,5.0,7.0,48,0.00,,---,0.00,VWS V14.01,2013-05-14 02:36:00,
2013-05-13 21:41:00,42.8,24.0,27.72,SE,132,4.0,4.0,47,0.00,,---,0.00,VWS V14.01,2013-05-14 02:41:00,
2013-05-13 21:46:00,42.8,24.5,27.72,SE,129,3.0,3.0,48,0.00,,---,0.00,VWS V14.01,2013-05-14 02:46:00,
2013-05-13 21:52:00,42.7,24.4,27.72,ESE,118,1.0,5.0,48,0.00,,---,0.00,VWS V14.01,2013-05-14 02:52:00,
2013-05-13 21:57:00,42.6,24.3,27.72,SSW,209,4.0,4.0,48,0.00,,---,0.00,VWS V14.01,2013-05-14 02:57:00,
2013-05-13 22:02:00,42.5,24.7,27.72,SSE,151,3.0,4.0,49,0.00,,---,0.00,VWS V14.01,2013-05-14 03:02:00,
2013-05-13 22:07:00,42.5,25.2,27.72,SE,124,0.0,0.0,50,0.00,,---,0.00,VWS V14.01,2013-05-14 03:07:00,
2013-05-13 22:12:00,42.7,25.4,27.72,SSE,149,4.0,5.0,50,0.00,,---,0.00,VWS V14.01,2013-05-14 03:12:00,
2013-05-13 22:18:00,42.8,25.5,27.72,SE,140,0.0,3.0,50,0.00,,---,0.00,VWS V14.01,2013-05-14 03:18:00,
2013-05-13 22:23:00,42.8,25.5,27.72,NE,54,1.0,2.0,50,0.00,,---,0.00,VWS V14.01,2013-05-14 03:23:00,
2013-05-13 22:28:00,42.8,25.5,27.72,ENE,57,2.0,2.0,50,0.00,,---,0.00,VWS V14.01,2013-05-14 03:28:00,
2013-05-13 22:33:00,42.7,25.4,27.72,East,92,3.0,3.0,50,0.00,,---,0.00,VWS V14.01,2013-05-14 03:33:00,
2013-05-13 22:38:00,42.6,25.8,27.72,ESE,104,3.0,3.0,51,0.00,,---,0.00,VWS V14.01,2013-05-14 03:38:00,
2013-05-13 22:43:00,42.4,26.5,27.72,ESE,115,2.0,4.0,53,0.00,,---,0.00,VWS V14.01,2013-05-14 03:43:00,
2013-05-13 22:48:00,42.3,26.9,27.71,ESE,121,0.0,1.0,54,0.00,,---,0.00,VWS V14.01,2013-05-14 03:48:00,
2013-05-13 22:53:00,42.3,26.9,27.71,ESE,121,0.0,2.0,54,0.00,,---,0.00,VWS V14.01,2013-05-14 03:53:00,
2013-05-13 22:58:00,42.3,26.9,27.71,ESE,119,0.0,2.0,54,0.00,,---,0.00,VWS V14.01,2013-05-14 03:58:00,
2013-05-13 23:01:00,42.4,27.0,27.71,ESE,120,0.0,1.0,54,0.00,,---,0.00,VWS V14.01,2013-05-14 04:01:00,
2013-05-13 23:03:00,42.4,27.0,27.71,ESE,120,0.0,4.0,54,0.00,,---,0.00,VWS V14.01,2013-05-14 04:03:00,
2013-05-13 23:04:00,42.4,27.4,27.71,ESE,120,0.0,2.0,55,0.00,,---,0.00,VWS V14.01,2013-05-14 04:04:00,
2013-05-13 23:09:00,42.5,27.5,27.71,SE,129,0.0,4.0,55,0.00,,---,0.00,VWS V14.01,2013-05-14 04:09:00,
2013-05-13 23:14:00,42.6,27.6,27.71,SE,130,3.0,4.0,55,0.00,,---,0.00,VWS V14.01,2013-05-14 04:14:00,
2013-05-13 23:19:00,42.6,27.6,27.71,SSE,163,2.0,3.0,55,0.00,,---,0.00,VWS V14.01,2013-05-14 04:19:00,
2013-05-13 23:24:00,42.7,28.1,27.71,SE,146,4.0,5.0,56,0.00,,---,0.00,VWS V14.01,2013-05-14 04:24:00,
2013-05-13 23:29:00,42.9,28.3,27.71,SSE,150,1.0,3.0,56,0.00,,---,0.00,VWS V14.01,2013-05-14 04:29:00,
2013-05-13 23:34:00,43.2,28.1,27.69,SSE,154,0.0,7.0,55,0.00,,---,0.00,VWS V14.01,2013-05-14 04:34:00,
2013-05-13 23:40:00,43.3,28.2,27.69,SSE,150,2.0,4.0,55,0.00,,---,0.00,VWS V14.01,2013-05-14 04:40:00,
2013-05-13 23:45:00,43.3,28.2,27.69,SE,137,2.0,4.0,55,0.00,,---,0.00,VWS V14.01,2013-05-14 04:45:00,
2013-05-13 23:50:00,43.2,28.1,27.69,SE,126,1.0,4.0,55,0.00,,---,0.00,VWS V14.01,2013-05-14 04:50:00,
2013-05-13 23:55:00,42.9,28.3,27.69,ESE,123,1.0,1.0,56,0.00,,---,0.00,VWS V14.01,2013-05-14 04:55:00,